{"data":{"norad_id":49156,"intl_designator":"2021-082AC","name":"STARLINK-3085","alt_names":[],"object_type":"PAYLOAD","status":"ACTIVE","operator":null,"country":"US","launch_date":"2021-09-14","launch_site_code":"AFWTR","launch_vehicle":null,"mission":null,"orbit_class":"UNKNOWN","rcs_meters":null,"size_class":null,"mass_kg":null,"dimensions":null,"purposes":["comms"],"wikipedia_slug":null,"has_3d_model":false,"image_url":null,"decayed_at":null,"tle_current":{"epoch":"2026-05-25T04:23:19.769280Z","epoch_age_seconds":69950,"freshness":"FRESH","line1":"1 49156U 21082AC  26145.18286770  .00000576  00000+0  56095-4 0  9991","line2":"2 49156  70.0005  61.5831 0002938 267.5969  92.4853 14.98330871259505","mean_motion":14.98330871,"eccentricity":0.0002938,"inclination_deg":70.0005,"raan_deg":61.5831,"arg_perigee_deg":267.5969,"mean_anomaly_deg":92.4853,"bstar":5.6095e-5,"rev_number":25950,"period_min":96.106943257395,"perigee_km":570.01123157006,"apogee_km":574.09516333008,"semimajor_km":6950.1901974501,"source":"CELESTRAK","updated_at":"2026-05-25T13:38:16.789388Z"}}}